Location: Val-d'Or
(48.1170°N, 77.7670°W)
Time: 01:32:11
(UTC-04:00)

ISS - Pass Details

Date: 25 May 2018
Orbit: 402 x 407 km, 51.6° (Epoch: 24 May)

Event Time Altitude Azimuth Distance (km) Brightness Sun altitude
Rises 00:39:08 0° 287° (WNW) 2,320 0.3 -20.6°
Reaches altitude 10° 00:41:15 10° 293° (WNW) 1,459 -0.6 -20.7°
Maximum altitude 00:44:27 49° 10° (N) 529 -2.9 -20.7°
Enters shadow 00:46:03 25° 75° (ENE) 866 -2.1 -20.8°
